QPF
0.00 0.00 0.00 0.00 0.00 0.00 0.00 0.00 0.00 0.00 0.01 0.02 0.03 0.05 0.07 0.02 0.00 0.00 0.00 0.00 0.00 0.00
0.00 0.00 0.00 0.00 0.00 0.00 0.00 0.00 0.00 0.00 0.00 0.01 0.03 0.08 0.11 0.07 0.03 0.00 0.00 0.00 0.00 0.00
0.00 0.00 0.00 0.00 0.00 0.00 0.01 0.00 0.00 0.00 0.00 0.00 0.05 0.15 0.16 0.05 0.04 0.01 0.00 0.00 0.00 0.00
0.00 0.00 0.00 0.00 0.00 0.01 0.03 0.01 0.01 0.06 0.06 0.04 0.03 0.03 0.02 0.04 0.07 0.07 0.01 0.00 0.00 0.00
0.00 0.00 0.01 0.05 0.04 0.12 0.10 0.04 0.04 0.15 0.11 0.03 0.00 0.00 0.02 0.07 0.11 0.04 0.03 0.01 0.00 0.00
0.00 0.04 0.12 0.16 0.19 0.19 0.13 0.11 0.05 0.09 0.06 0.01 0.00 0.00 0.01 0.05 0.03 0.01 0.00 0.01 0.01 0.01
0.03 0.06 0.05 0.04 0.01 0.01 0.02 0.01 0.00 0.00 0.00 0.00 0.00 0.00 0.00 0.02 0.01 0.01 0.00 0.01 0.00 0.00
0.00 0.00 0.00 0.00 0.00 0.00 0.00 0.00 0.00 0.00 0.00 0.00 0.00 0.00 0.00 0.00 0.00 0.00 0.00 0.02 0.03 0.07
0.00 0.00 0.00 0.00 0.00 0.00 0.00 0.00 0.00 0.00 0.00 0.00 0.00 0.00 0.00 0.00 0.00 0.00 0.00 0.03 0.04 0.03
0.00 0.00 0.00 0.00 0.00 0.00 0.00 0.00 0.00 0.00 0.00 0.00 0.00 0.00 0.00 0.00 0.00 0.00 0.00 0.00 0.00 0.00
0.00 0.00 0.00 0.00 0.00 0.00 0.00 0.00 0.00 0.00 0.00 0.00 0.00 0.00 0.00 0.00 0.00 0.00 0.00 0.00 0.00 0.00
0.00 0.00 0.00 0.00 0.00 0.00 0.00 0.00 0.00 0.00 0.00 0.00 0.00 0.00 0.00 0.00 0.00 0.00 0.00 0.00 0.00 0.00
0.00 0.00 0.00 0.00 0.00 0.00 0.00 0.00 0.00 0.00 0.00 0.00 0.00 0.00 0.00 0.00 0.00 0.00 0.00 0.00 0.00 0.01
0.00 0.00 0.00 0.00 0.00 0.00 0.00 0.00 0.00 0.00 0.00 0.00 0.00 0.00 0.00 0.00 0.00 0.00 0.00 0.00 0.00 0.00
MSLP
1015.14 1015.42 1015.44 1015.42 1015.55 1015.45 1015.38 1015.13 1015.16 1015.26 1015.23 1015.23 1015.16 1015.13 1015.26 1015.65 1015.84 1016.20 1016.35 1016.46 1016.61 1016.54
1014.58 1014.86 1015.03 1015.11 1015.15 1015.23 1015.10 1015.17 1015.18 1015.18 1015.13 1015.00 1014.73 1014.56 1014.53 1014.61 1015.10 1015.60 1015.81 1016.01 1016.19 1016.27
1014.23 1014.60 1014.87 1014.99 1015.00 1014.84 1015.00 1014.99 1014.93 1014.97 1014.77 1014.70 1014.63 1014.65 1014.49 1014.66 1014.61 1014.84 1015.38 1015.36 1015.65 1015.88
1014.16 1014.42 1014.57 1014.56 1014.38 1014.39 1014.54 1014.21 1014.34 1014.22 1014.39 1014.47 1014.44 1014.78 1015.08 1014.49 1014.77 1015.06 1015.01 1015.15 1015.06 1015.40
1013.80 1014.03 1014.17 1014.22 1014.28 1014.30 1014.09 1014.05 1014.16 1014.40 1014.55 1014.68 1014.49 1014.71 1014.71 1014.68 1014.83 1014.90 1014.97 1014.86 1015.15 1015.10
1014.18 1014.50 1014.84 1014.50 1014.46 1014.53 1014.44 1014.46 1014.42 1014.59 1014.70 1014.65 1014.51 1014.53 1014.65 1014.76 1014.86 1014.95 1014.92 1014.97 1015.05 1015.00
1014.70 1014.96 1015.16 1015.14 1015.05 1014.99 1014.89 1014.81 1014.76 1014.91 1015.00 1014.90 1014.80 1014.69 1014.64 1014.76 1014.85 1014.87 1014.89 1014.83 1014.80 1014.69
1015.53 1015.68 1015.73 1015.79 1015.77 1015.64 1015.53 1015.56 1015.50 1015.37 1015.28 1015.28 1015.28 1015.31 1015.21 1015.05 1014.94 1014.71 1014.61 1014.58 1014.47 1014.39
1016.36 1016.38 1016.40 1016.44 1016.42 1016.34 1016.30 1016.28 1016.16 1016.05 1016.04 1016.00 1015.95 1015.72 1015.31 1015.10 1014.71 1014.56 1014.61 1014.53 1014.42 1014.21
1017.13 1017.13 1017.26 1017.34 1017.27 1017.24 1017.17 1017.03 1016.91 1016.88 1016.78 1016.79 1016.61 1016.21 1015.81 1015.51 1015.50 1015.64 1015.56 1015.44 1014.94 1014.42
1017.73 1017.90 1018.06 1018.04 1017.98 1017.94 1017.89 1017.91 1018.02 1017.95 1017.80 1017.58 1017.43 1017.05 1016.72 1016.47 1016.49 1016.51 1016.47 1016.21 1015.87 1015.30
1018.33 1018.44 1018.51 1018.58 1018.57 1018.58 1018.67 1018.70 1018.69 1018.66 1018.57 1018.41 1018.36 1018.02 1017.70 1017.44 1017.36 1017.22 1017.02 1016.83 1016.46 1016.06
1018.80 1018.94 1019.06 1019.15 1019.31 1019.40 1019.44 1019.57 1019.50 1019.41 1019.35 1019.28 1019.09 1018.83 1018.45 1018.21 1018.01 1017.82 1017.67 1017.39 1017.22 1017.01
1019.23 1019.32 1019.43 1019.53 1019.57 1019.64 1019.70 1019.84 1019.82 1019.82 1019.89 1019.81 1019.68 1019.50 1019.12 1018.83 1018.64 1018.54 1018.47 1018.35 1018.20 1017.97
Thickness
5791 5787 5786 5786 5784 5784 5785 5786 5786 5782 5780 5778 5776 5775 5774 5771 5768 5763 5760 5756 5752 5752
5798 5794 5792 5791 5790 5789 5789 5786 5783 5780 5778 5776 5777 5776 5775 5773 5769 5762 5757 5755 5752 5748
5801 5797 5794 5792 5791 5792 5788 5785 5784 5780 5778 5776 5773 5768 5766 5763 5763 5760 5753 5752 5750 5746
5801 5798 5795 5794 5795 5793 5790 5788 5784 5782 5776 5773 5770 5763 5756 5758 5753 5737 5738 5745 5746 5742
5804 5800 5797 5795 5793 5791 5790 5786 5782 5777 5772 5767 5766 5761 5757 5754 5747 5738 5738 5739 5735 5736
5799 5794 5790 5791 5789 5785 5783 5779 5777 5772 5767 5763 5760 5756 5752 5747 5742 5738 5736 5734 5731 5729
5793 5788 5785 5783 5782 5779 5776 5772 5768 5762 5758 5756 5753 5750 5746 5740 5737 5734 5732 5730 5728 5726
5785 5781 5777 5773 5771 5769 5766 5763 5760 5756 5753 5749 5745 5740 5736 5734 5731 5730 5728 5725 5724 5722
5775 5772 5769 5765 5761 5759 5755 5751 5749 5746 5742 5739 5735 5733 5733 5731 5731 5728 5723 5720 5719 5718
5765 5761 5757 5753 5750 5746 5744 5742 5739 5735 5733 5730 5728 5728 5728 5726 5722 5716 5712 5709 5710 5710
5756 5751 5745 5742 5740 5737 5734 5731 5726 5723 5721 5720 5717 5716 5715 5713 5709 5705 5701 5699 5697 5698
5748 5743 5738 5734 5731 5728 5723 5719 5716 5713 5711 5709 5706 5705 5704 5701 5698 5695 5693 5691 5690 5689
5740 5735 5730 5725 5720 5716 5712 5706 5703 5701 5699 5697 5696 5695 5694 5692 5689 5687 5683 5680 5676 5672
5733 5729 5724 5719 5715 5710 5705 5700 5697 5693 5689 5688 5685 5683 5682 5679 5677 5672 5667 5662 5657 5653